SL-16 DEB, 28437

Orbit data source: Space-Track

SL-16 DEB, 28437 is space debris in SSO originally from a launch on Mon, 10 Dec 2001 UTC launched from the Tyuratam Missile And Space Complex (TTMTR). Debris objects in space refer to the collection of defunct objects orbiting the Earth. Examples of debris include non-operational satellites, rocket bodies, and fragments generated from explosions, collisions, or faulty payload assembly.

Loading next visibility...
SL-16 DEB details
Identifier
28437, 2001-056L
Orbit
SSO
Last TLE update6 hours ago
Origin
Flag of CISKVR (CIS)
ManufacturerYuzhnoe
MissionSpacecraft
Bus & MotorSEP MOTOR COVER, Unknown motor
Mass~1 kg wet, ~1 kg dry
Launch date (UTC)
2001-12-10 (23 years ago)
Launch vehicleUnknown
Launch site
Tyuratam Missile And Space Complex (TTMTR)
Object type
Payload
Rocket body
Debris
Shape & HBRCone, 1 m
Radar Cross Section0.635 m², Small (<0.1 m²)

Expand to show TLE details & history

TLE from 6 hours ago
0 SL-16 DEB
1 28437U 01056L   24361.42637323  .00000226  00000-0  52394-3 0  9998
2 28437  99.4462 306.8573 0202663  68.8048  44.4000 13.27518325116091
Epoch: 2024-12-26T10:13Z
Definitive object data (Epoch: 2024-12-26T10:13:58.647Z)
Latitude63.60292°
Longitude-102.56303°
Altitude1,059.438 km
Speed7.38 km/s
True Right ascension09h 45m 20s
True Declination63° 28' 17"
Sunlit
Object was in full shadow at TLE epoch
Visualization TLE readout
Latitude-62.15414°
Longitude76.4615°
Altitude1,279.687 km
Speed7.167 km/s
Apparent Right ascension01h 27m 13s
Apparent Declination-61° 32' 35"
Sunlit
Object is in daylight
Visualization observer readout
Local Sidereal Time15:57:32
Azimuth146.073° SSE
Elevation-58.625°
Doppler factor1
Orbital elements
Apogee altitude1,306.093 km
Perigee altitude1,000.818 km
Semi-major axis7,531.593 km
Eccentricity0.0202663
Inclination99.4462°
RAAN306.8573°
Arg. of periapsis68.8048°
True anomaly46.05456°
Mean anomaly44.4°
Eccentric anomaly45.22428°
Mean motion3.32057 °/min
BSTAR0.00052394
Orbital period108.42 mins
Loading maneuver chart data...
Loading historical data...
Loading historical data...
Loading historical data...
Loading historical data...
Loading historical data...
Loading historical data...
Loading historical data...

SL-16 DEB Visibility forecast

Observer location: undefined°, undefined

Span
Click to sort rows by Start time (UTC) header in descending order
Start Az.
Max El. time (UTC)
Max El. Az.
Max El.
End time (UTC)
End Az.
6 mins2024-12-26 18:54:20.964Z88.407° E2024-12-26 18:57:20.964Z56.399° ENE16.271°2024-12-26 19:00:20.964Z25.252° NE
11 mins2024-12-26 20:38:20.964Z170.733° S2024-12-26 20:43:20.964Z246.384° WSW44.304°2024-12-26 20:49:20.964Z342.507° N
7 mins2024-12-27 08:01:20.964Z60.535° ENE2024-12-27 08:04:20.964Z91.193° ESE17.309°2024-12-27 08:08:20.964Z129.431° SE
11 mins2024-12-27 09:47:20.964Z7.563° NNE2024-12-27 09:52:20.964Z254.458° W43.168°2024-12-27 09:58:20.964Z205.037° SW
|